User: anonymous   Login
Location: Unspecified
(0.0000°N, 0.0000°E)
Time: 19:22:05
(UTC+00:00)
Language:

STARLINK-5741 - Orbit

View from above orbital plane
View from above orbital plane
View from above satellite
View from above satellite

Ground track
Ground track

The orbit is defined by the following mean orbital elements,

1 55582U          26145.41497898 +.00000000 +00000-0 -36361-4 0 00000
2 55582  43.0032 280.9147 0001205 269.3993  90.6721 15.27582997    09
Epoch (UTC): 25 May 2026 09:57:34
Eccentricity: 0.0001205
inclination: 43.0032°
perigee height: 482 km
apogee height: 484 km
right ascension of ascending node: 280.9147°
argument of perigee: 269.3993°
revolutions per day: 15.27582997
mean anomaly at epoch: 90.6721°

The dashed part of the orbit path shows where the satellite is in the earth's shadow,  

DLR